Starlink 32384

operational
NORAD ID: 62146 Int'l Des: 2024-224 Owner: SPXS Country: US Constellation: starlink
LEOCIRCULAR

Über Starlink 32384

Beschreibung wird geladen...

Live-Position

3D-Globus wird geladen...

Nächste Überflüge

Höhenverlauf

Altitude vs Time

uPlot chart will show altitude changes over time

Zweizeiliger Elementsatz

1 62146U 24224H 25350.48505405 .00024825 00000-0 90814-3 0 9995
2 62146 43.0037 268.1158 0001075 272.1882 87.8846 15.27597053 59753
Epoch: 16. Dez. 2025 • Age: 20 hours

Aktueller Status

Höhe 492.3 km
Geschwindigkeit 7.62 km/s
Subsatellitenpunkt -35.24°S, 11.43°E
Startdatum 30. Nov. 2024
Alter 1 years
Typ internet

Technische Details

Klassifizierung Payload
Masse 730.00 kg
Trockenmasse 700.00 kg
Gesamtmasse 730.00 kg
Länge 0.30 m
Durchmesser 4.10 m
Spannweite 29.00 m
Form Box + pan
Hersteller SPXS
Bus-Typ Starlink V2M
Phasenstatus In Orbit
Besitzer/Staat SPXS/US

Große Konstellationen

Loading constellations...